Location: D�rnast
(49.6426°N, 11.9755°E)
Time: 01:38:24
(UTC+00:00)

N. Korean satellite - Pass Details

Date: 09 December 2021
Orbit: 446 x 492 km, 97.3° (Epoch: 16 January)

Event Time Altitude Azimuth Distance (km) Brightness Sun altitude
Rises 03:54:15 0° 23° (NNE) 2,464 10.4 -28.4°
Reaches altitude 10° 03:56:30 10° 36° (NE) 1,584 9.5 -28.0°
Maximum altitude 03:59:25 26° 95° (E) 912 8.6 -27.6°
Drops below altitude 10° 04:02:20 10° 155° (SSE) 1,574 9.5 -27.1°
Sets 04:04:34 0° 168° (SSE) 2,444 10.3 -26.7°
